Weather History for Los Alamitos, CA

Change the Weather History Date:

Wednesday, November 23, 2011

  Actual Average Record
Temperature  
Mean Temperature 52 °F -  
Max Temperature 63 °F 69 °F 78 °F (2003)
Min Temperature 41 °F 52 °F 41 °F (2011)
Degree Days  
Heating Degree Days 13    
Growing Degree Days 2 (Base 50)    
Moisture  
Dew Point 48 °F    
Average Humidity 98    
Maximum Humidity 100    
Minimum Humidity 81    
Precipitation  
Precipitation 0.00 in - - ()
Sea Level Pressure  
Sea Level Pressure 30.03 in    
Wind  
Wind Speed 1 mph (SE)    
Max Wind Speed 8 mph    
Max Gust Speed -    
Visibility 5 miles    
Events      
Averages and records for this station are not official NWS values.
T = Trace of Precipitation, MM = Missing Value Source: NWS Daily Summary

Daily Weather History Graph

Daily Weather History Graph

Search for Another Location

Airport:

Trip Planner

Search our weather history database for the weather conditions in past years. The results will help you decide how hot, cold, wet, or windy it might be!

Date:

Astronomy

Nov. 23, 2011 Rise Set
Actual Time 6:31 AM PST 4:45 PM PST
Civil Twilight 6:04 AM PST 5:12 PM PST
Nautical Twilight 5:34 AM PST 5:42 PM PST
Astronomical Twilight 5:04 AM PST 6:12 PM PST
Moon 4:43 AM PST (11/23) 3:29 PM PST (11/23)
Length of Visible Light 11h 07m
Length of Day
10h 13m
Waning Crescent, 3% of the Moon is Illuminated
Nov 23
Waning Crescent
Nov 24
New
Dec 2
First Quarter
Dec 10
Full
Dec 17
Last Quarter

Hourly Weather History & Observations

Time (PST) Temp. Windchill Dew Point Humidity Pressure Visibility Wind Dir Wind Speed Gust Speed Precip Events Conditions
12:01 AM 48.2 °F - 48.2 °F 100% 30.11 in 2.5 mi Calm Calm - N/A   Clear
12:09 AM 48.2 °F - 48.2 °F 100% 30.10 in 2.0 mi Calm Calm - N/A   Clear
12:11 AM 48.2 °F - 48.2 °F 100% 30.10 in 3.0 mi Calm Calm - N/A   Clear
12:55 AM 46.6 °F - 46.6 °F 100% 30.09 in 7.0 mi Calm Calm - N/A   Clear
1:37 AM 46.4 °F - 46.4 °F 100% 30.08 in 2.5 mi Calm Calm - N/A   Clear
1:45 AM 46.4 °F - 46.4 °F 100% 30.08 in 1.8 mi Calm Calm - N/A   Clear
1:47 AM 46.4 °F - 46.4 °F 100% 30.07 in 2.5 mi Calm Calm - N/A   Clear
1:49 AM 46.4 °F - 46.4 °F 100% 30.07 in 3.0 mi Calm Calm - N/A   Clear
1:55 AM 46.4 °F - 46.4 °F 100% 30.07 in 4.0 mi Calm Calm - N/A   Clear
2:14 AM 46.4 °F - 46.4 °F 100% 30.06 in 2.5 mi Calm Calm - N/A   Clear
2:16 AM 46.4 °F - 46.4 °F 100% 30.06 in 1.8 mi Calm Calm - N/A   Clear
2:18 AM 46.4 °F - 46.4 °F 100% 30.06 in 1.2 mi Calm Calm - N/A   Clear
2:28 AM 46.4 °F - 46.4 °F 100% 30.05 in 1.0 mi Calm Calm - N/A   Clear
2:29 AM 46.4 °F - 46.4 °F 100% 30.05 in 1.5 mi Calm Calm - N/A   Clear
2:30 AM 46.4 °F - 46.4 °F 100% 30.05 in 2.0 mi Calm Calm - N/A   Clear
2:31 AM 44.6 °F - 44.6 °F 100% 30.05 in 3.0 mi Calm Calm - N/A   Clear
2:55 AM 45.5 °F - 45.5 °F 100% 30.04 in 7.0 mi Calm Calm - N/A   Clear
3:21 AM 44.6 °F - 44.6 °F 100% 30.03 in 2.5 mi Calm Calm - N/A   Clear
3:23 AM 44.6 °F - 44.6 °F 100% 30.03 in 1.8 mi Calm Calm - N/A   Clear
3:28 AM 44.6 °F - 44.6 °F 100% 30.03 in 1.2 mi Calm Calm - N/A   Clear
3:30 AM 44.6 °F - 44.6 °F 100% 30.03 in 1.5 mi Calm Calm - N/A   Clear
3:32 AM 44.6 °F - 44.6 °F 100% 30.03 in 2.0 mi Calm Calm - N/A   Clear
3:37 AM 44.6 °F - 44.6 °F 100% 30.03 in 3.0 mi Calm Calm - N/A   Clear
3:55 AM 44.2 °F - 44.2 °F 100% 30.02 in 6.0 mi Calm Calm - N/A   Clear
4:37 AM 42.8 °F - 42.8 °F 100% 30.02 in 2.5 mi Calm Calm - N/A   Clear
4:45 AM 42.8 °F 41.1 °F 42.8 °F 100% 30.02 in 3.0 mi SW 3.5 mph - N/A   Clear
4:55 AM 41.5 °F - 41.5 °F 100% 30.03 in 3.0 mi Calm Calm - N/A   Clear
5:13 AM 42.8 °F - 42.8 °F 100% 30.03 in 2.0 mi Calm Calm - N/A   Clear
5:14 AM 41.0 °F - 41.0 °F 100% 30.03 in 1.8 mi Calm Calm - N/A   Clear
5:15 AM 41.0 °F 39.0 °F 41.0 °F 100% 30.03 in 1.2 mi ENE 3.5 mph - N/A   Clear
5:16 AM 41.0 °F 39.0 °F 41.0 °F 100% 30.03 in 1.0 mi NE 3.5 mph - N/A   Clear
5:17 AM 41.0 °F 39.0 °F 41.0 °F 100% 30.03 in 0.8 mi NE 3.5 mph - N/A   Clear
5:24 AM 42.8 °F 41.1 °F 42.8 °F 100% 30.04 in 1.0 mi ENE 3.5 mph - N/A   Clear
5:25 AM 42.8 °F 41.1 °F 42.8 °F 100% 30.04 in 1.2 mi ENE 3.5 mph - N/A   Clear
5:26 AM 42.8 °F 41.1 °F 42.8 °F 100% 30.04 in 1.8 mi ENE 3.5 mph - N/A   Clear
5:27 AM 42.8 °F 41.1 °F 42.8 °F 100% 30.04 in 2.5 mi ENE 3.5 mph - N/A   Clear
5:28 AM 42.8 °F 41.1 °F 42.8 °F 100% 30.04 in 4.0 mi ENE 3.5 mph - N/A   Clear
5:55 AM 42.6 °F - 42.6 °F 100% 30.04 in 2.5 mi Calm Calm - N/A   Clear
6:09 AM 42.8 °F 40.1 °F 42.8 °F 100% 30.04 in 3.0 mi ENE 4.6 mph - N/A   Mostly Cloudy
6:55 AM 43.5 °F 41.9 °F 43.5 °F 100% 30.05 in 7.0 mi ENE 3.5 mph - N/A   Mostly Cloudy
7:55 AM 47.1 °F - 47.1 °F 100% 30.06 in 7.0 mi Calm Calm - N/A   Mostly Cloudy
8:55 AM 56.1 °F - 56.1 °F 100% 30.09 in 6.0 mi SE 4.6 mph - N/A   Mostly Cloudy
9:55 AM 61.3 °F - 59.9 °F 95% 30.09 in 7.0 mi South 8.1 mph - N/A   Mostly Cloudy
10:55 AM 62.8 °F - 57.0 °F 81% 30.06 in 7.0 mi SE 5.8 mph - N/A   Mostly Cloudy
11:55 AM 63.3 °F - 57.4 °F 81% 30.04 in 10.0 mi SSW 4.6 mph - N/A   Mostly Cloudy
12:55 PM 63.3 °F - 57.9 °F 83% 30.01 in 10.0 mi SW 8.1 mph - N/A   Mostly Cloudy
1:55 PM 62.8 °F - 57.4 °F 82% 29.99 in 10.0 mi South 6.9 mph - N/A   Partly Cloudy
2:55 PM 62.4 °F - 57.4 °F 84% 29.96 in 10.0 mi SSW 8.1 mph - N/A   Partly Cloudy
3:55 PM 60.3 °F - 58.6 °F 94% 29.96 in 10.0 mi SSW 8.1 mph - N/A   Partly Cloudy
4:55 PM 57.6 °F - 57.6 °F 100% 29.97 in 10.0 mi South 5.8 mph - N/A   Scattered Clouds
5:09 PM 57.2 °F - 57.2 °F 100% 29.98 in 10.0 mi South 5.8 mph - N/A   Mostly Cloudy
5:55 PM 55.9 °F - 55.9 °F 100% 29.99 in 10.0 mi SSW 4.6 mph - N/A   Mostly Cloudy
6:55 PM 55.2 °F - 55.2 °F 100% 29.99 in 10.0 mi Calm Calm - N/A   Mostly Cloudy
7:55 PM 54.1 °F - 54.1 °F 100% 29.99 in 10.0 mi Calm Calm - N/A   Mostly Cloudy
8:55 PM 52.3 °F - 52.3 °F 100% 29.99 in 10.0 mi Calm Calm - N/A   Mostly Cloudy
9:55 PM 53.4 °F - 53.4 °F 100% 30.00 in 10.0 mi SW 3.5 mph - N/A   Overcast
10:30 PM 55.4 °F - 55.4 °F 100% 30.00 in 10.0 mi NNW 3.5 mph - N/A   Mostly Cloudy
10:55 PM 54.0 °F - 53.8 °F 99% 30.00 in 10.0 mi NNW 4.6 mph - N/A   Partly Cloudy
11:43 PM 53.6 °F - 53.6 °F 100% 30.00 in 10.0 mi Calm Calm - N/A   Overcast
11:55 PM 53.4 °F - 53.4 °F 100% 29.99 in 10.0 mi Calm Calm - N/A   Overcast